Helicity
56 72 78 55 56 69 74 75 70 67 91 95 78 69 151 181 171 104 70 55 18 -12 -40 -29 -28 3 31 85 112 118 170 164 156 175 165 127 118 150 145 132 127 113 69 94
66 89 52 51 65 59 61 53 56 67 97 94 61 119 148 174 129 111 83 66 33 -2 -4 -22 -12 -2 -22 26 44 84 156 194 202 175 145 111 115 148 140 123 162 179 172 122
66 72 44 48 50 49 45 56 66 79 77 119 65 108 107 90 118 107 78 66 53 42 9 11 15 7 7 36 112 11 190 206 297 397 383 227 209 237 274 239 219 324 357 211
59 50 49 43 63 57 38 86 81 65 81 108 121 122 137 127 85 82 91 67 63 47 37 30 14 23 -15 -2 57 78 131 256 248 381 569 495 399 299 290 320 341 364 523 453
75 56 56 59 66 68 63 80 94 91 85 85 115 119 171 123 97 76 116 89 78 70 58 52 26 20 14 -4 31 65 87 198 345 295 434 546 584 503 445 442 413 564 545 636
66 55 56 52 63 67 53 82 103 64 93 96 139 104 92 102 85 110 167 127 80 78 57 60 31 19 24 18 29 16 74 103 160 258 258 182 286 474 477 471 415 458 602 596
54 74 64 50 48 78 41 62 55 61 68 120 190 85 86 132 109 97 164 154 96 81 58 56 44 42 46 66 53 43 59 72 74 77 97 88 115 179 268 209 382 281 169 328
60 79 70 68 79 77 65 60 62 79 108 88 118 105 132 147 136 146 185 148 111 90 79 79 60 64 62 62 60 54 55 63 50 75 61 32 21 48 21 84 62 186 277 156
63 74 68 72 78 72 100 83 102 105 122 133 109 176 160 122 123 152 159 155 99 99 87 92 86 72 75 74 74 70 63 57 53 52 65 55 30 -2 -20 -12 -3 -10 38 55
94 59 83 78 93 84 74 109 91 107 80 126 172 126 89 100 93 114 129 142 151 125 115 95 100 95 78 84 80 82 83 81 71 58 47 29 13 3 -1 25 20 16 22 52
92 83 92 84 110 80 99 94 130 125 130 153 172 142 146 90 115 94 89 69 170 152 158 119 106 109 110 92 99 94 83 83 74 48 25 5 1 3 -10 -8 23 57 72 75
94 128 113 82 63 75 88 104 141 137 160 187 208 208 130 106 102 105 74 95 161 158 155 139 122 132 153 184 126 93 89 90 73 58 53 42 22 11 18 26 26 29 40 51
120 136 91 58 100 138 103 127 140 167 191 155 190 166 217 233 229 201 156 153 208 281 285 258 206 144 184 190 170 135 108 87 80 75 67 47 39 41 39 27 18 11 7 34
135 161 107 112 74 78 70 104 143 136 146 128 276 193 167 190 110 105 133 155 215 279 323 307 300 184 192 190 174 140 114 97 69 52 34 23 20 31 48 71 82 77 68 57
123 160 130 126 89 90 93 82 92 113 159 218 163 136 142 84 73 57 89 136 224 284 318 328 312 218 181 157 135 124 108 95 79 72 51 49 62 62 59 59 59 69 84 86
160 147 160 134 87 41 116 56 77 94 51 137 96 106 93 36 110 102 97 126 160 223 281 313 297 254 211 154 141 126 118 113 99 85 71 79 80 72 74 75 78 70 63 62
221 173 145 142 133 96 32 19 140 204 141 188 183 133 161 145 140 115 125 107 108 161 243 291 284 246 183 158 152 138 124 113 105 85 83 70 51 51 60 58 49 47 44 41
166 222 178 185 108 159 147 216 182 122 78 128 130 99 109 142 114 112 125 95 111 142 207 265 282 244 203 176 158 145 143 138 119 108 98 89 92 94 86 74 69 66 64 66
164 234 174 178 233 203 109 183 169 169 155 141 69 55 163 150 140 176 158 168 161 163 222 271 273 259 229 208 184 158 134 119 106 103 98 110 117 107 96 89 89 88 83 77
173 213 227 280 248 270 237 181 217 175 157 157 94 127 154 198 181 215 201 236 293 304 316 321 319 294 251 204 154 134 129 112 112 118 123 124 113 99 91 91 92 90 87 82
294 283 205 205 317 270 180 211 217 269 228 144 106 149 165 211 286 285 282 348 369 382 395 363 287 213 173 151 140 132 120 120 122 122 116 104 88 84 78 79 76 72 72 74
286 245 291 306 340 279 205 229 179 244 183 165 176 216 209 285 305 318 327 362 365 314 259 219 194 173 149 135 123 122 119 123 115 108 97 91 87 85 77 76 75 73 72 69
325 320 326 266 300 326 158 196 264 217 218 219 187 223 242 251 275 278 259 262 270 254 223 198 178 147 121 117 109 115 122 108 99 91 93 90 83 80 79 81 84 83 86 85
354 180 302 291 221 162 191 281 268 211 222 224 220 203 203 237 254 236 243 259 254 230 199 156 131 119 112 114 111 100 94 93 86 82 81 78 77 78 92 99 98 101 104 110
289 238 320 291 188 218 312 258 191 170 176 192 222 220 230 249 261 258 263 245 211 175 140 117 115 109 107 104 100 96 94 86 82 82 82 82 89 93 98 97 99 90 77 78
235 261 300 248 307 244 206 140 110 147 176 198 245 311 321 282 272 237 223 182 150 130 114 112 105 99 102 93 86 85 83 81 80 81 90 98 95 90 87 89 85 52 40 37
Wind_Speed
42 43 49 45 43 42 42 40 35 30 27 23 15 14 13 16 28 34 36 45 52 55 57 62 68 70 67 66 66 65 60 58 54 45 38 39 46 51 54 54 60 69 71 69
38 45 44 41 41 43 44 45 42 34 30 28 22 20 12 5 15 26 33 36 48 53 56 60 65 72 70 66 67 66 58 55 53 49 40 31 36 40 43 44 45 52 57 67
42 43 41 43 43 46 49 44 47 44 37 24 24 23 21 14 16 19 28 33 39 48 55 57 63 67 72 68 64 66 57 54 50 44 34 28 24 28 35 39 41 44 44 48
41 42 42 46 45 48 47 46 44 45 47 49 38 48 32 22 14 15 21 32 39 44 50 54 58 62 66 66 64 59 55 54 44 41 34 30 25 29 32 34 35 36 35 39
44 42 43 46 46 46 45 46 41 43 40 40 38 42 39 30 20 11 16 22 29 38 44 50 54 58 61 64 67 59 56 53 54 53 37 30 26 28 29 29 28 30 28 29
40 36 38 42 44 43 47 45 42 39 43 48 44 45 38 34 30 20 17 20 24 32 39 44 48 52 56 58 61 58 55 53 52 52 36 36 40 27 29 30 26 28 27 28
44 38 39 42 47 43 57 56 52 50 53 52 39 40 30 33 31 25 17 18 19 25 31 40 43 47 51 53 55 56 54 52 49 45 44 44 39 36 33 29 31 32 28 30
54 48 44 45 47 49 51 52 54 56 55 49 39 43 38 34 33 29 22 19 18 19 25 31 39 42 45 47 49 50 51 49 48 47 46 41 44 38 36 37 35 36 40 37
53 46 39 42 43 46 48 50 43 45 45 50 43 38 35 32 30 27 22 15 14 16 20 24 30 37 40 42 44 45 46 46 46 45 45 44 42 37 34 36 37 35 40 35
44 48 38 40 42 41 43 41 47 49 54 55 50 50 41 38 34 23 20 14 8 13 15 20 25 31 35 38 41 42 42 44 45 46 47 46 44 43 39 39 41 41 45 43
43 39 44 45 41 44 45 43 40 44 43 51 61 57 39 37 37 28 21 20 12 7 10 14 19 24 31 35 38 40 40 42 43 43 43 44 47 48 47 47 47 48 49 49
43 44 49 48 43 39 40 40 36 47 50 43 49 50 38 36 35 35 34 26 15 8 10 14 18 22 26 30 35 38 39 40 42 43 44 46 48 50 52 53 53 52 51 51
43 44 59 53 43 43 44 41 37 41 45 43 51 49 39 34 40 41 42 35 19 12 10 15 20 24 26 26 30 35 39 41 42 44 46 48 52 55 56 57 56 56 55 56
36 38 39 49 51 48 43 39 38 36 43 39 38 47 44 42 46 47 45 38 22 14 14 14 17 21 24 27 30 32 36 40 42 44 47 50 53 55 57 59 60 60 60 60
37 46 41 36 38 38 34 37 34 33 35 45 51 54 52 51 52 52 51 37 26 19 16 16 17 19 23 26 30 34 36 38 41 44 47 51 55 57 59 60 61 62 63 63
39 50 50 50 42 37 44 41 35 41 40 41 48 55 50 51 48 51 53 41 30 24 21 19 18 17 21 26 31 35 38 41 44 47 52 56 59 61 63 64 66 65 65 65
44 45 53 56 53 58 50 47 49 50 44 49 58 59 55 56 55 55 54 44 36 28 22 19 17 20 22 24 29 35 39 43 46 50 55 59 62 65 66 66 66 67 67 66
40 42 47 56 61 62 57 57 55 50 50 45 53 51 54 61 60 56 54 49 40 32 24 20 23 23 24 26 30 36 40 45 50 55 60 63 67 69 70 70 71 71 71 72
26 36 50 59 64 69 68 58 60 63 69 59 47 55 58 61 59 59 54 50 45 35 26 21 24 24 26 31 34 39 44 47 51 56 61 65 68 72 73 74 74 74 75 76
36 28 43 57 70 79 74 57 51 55 82 45 55 66 66 63 74 65 55 45 39 32 29 26 28 30 35 39 41 45 48 50 55 60 65 68 69 72 75 76 77 75 77 78
46 45 51 54 67 69 58 50 50 76 84 63 68 68 67 68 67 56 45 44 38 32 31 30 32 36 38 40 45 49 52 55 59 64 66 68 70 73 74 76 75 77 78 79
52 60 61 57 68 85 44 54 70 72 76 73 72 70 69 63 58 47 39 35 34 34 35 38 38 39 41 45 50 52 57 60 64 66 68 70 71 72 73 76 77 78 79 81
64 52 55 58 69 62 54 74 68 71 76 74 72 68 62 56 51 42 36 34 36 37 38 40 42 44 45 48 51 57 61 64 65 68 71 72 73 74 74 75 77 79 77 78
57 44 67 81 74 65 85 72 69 70 72 69 64 61 52 51 43 40 35 37 39 41 42 42 44 49 52 53 57 60 63 65 68 71 73 73 75 75 74 73 73 75 76 78
65 71 75 82 80 81 70 70 70 72 66 61 58 54 48 41 40 36 36 38 39 41 43 46 49 53 56 58 60 62 65 67 70 72 73 74 72 74 74 72 72 73 71 72
67 74 70 87 74 73 74 72 68 66 62 55 53 50 45 39 37 35 38 38 41 43 46 50 54 56 58 61 64 65 65 66 68 71 70 71 72 71 71 73 74 68 70 73
Wind_Direction
37 37 28 30 33 29 24 22 18 22 32 28 10 344 347 359 353 355 1 350 342 337 346 354 357 358 342 336 331 328 322 315 311 315 307 296 282 277 276 277 272 267 262 257
41 33 31 32 29 25 21 17 20 26 33 23 10 341 353 27 14 5 3 10 347 337 340 346 355 359 351 344 340 340 331 322 314 308 308 308 294 289 282 282 285 276 269 262
34 30 30 27 24 21 17 22 18 16 16 22 23 20 49 66 36 27 13 10 8 357 341 338 346 353 356 351 343 349 340 334 326 322 315 315 312 306 294 288 287 281 277 273
32 27 27 23 25 22 21 21 18 13 14 15 33 20 37 46 61 48 28 7 360 -0 355 348 344 353 355 354 355 355 354 358 346 345 334 328 312 304 302 296 295 285 283 282
25 26 25 23 22 21 19 15 14 17 24 24 36 27 34 45 43 56 40 34 16 4 1 354 348 359 5 5 14 1 1 3 3 9 359 345 339 322 310 306 312 300 290 292
30 31 31 24 20 22 13 16 20 29 28 22 28 28 31 36 38 47 45 40 31 19 5 4 354 1 6 11 14 6 4 6 7 9 4 8 6 326 330 312 315 317 296 292
23 29 27 24 17 21 13 14 15 15 17 16 29 23 26 30 33 38 61 51 49 31 18 1 4 357 357 2 10 14 7 8 3 2 5 7 358 348 340 315 323 305 309 302
13 13 19 18 17 12 15 17 16 9 9 9 22 22 26 30 30 39 54 54 49 41 26 17 1 2 357 355 0 9 11 7 3 3 4 357 359 344 340 326 320 325 312 306
9 10 18 16 16 14 13 13 18 10 8 6 17 19 21 37 30 29 33 49 38 32 27 21 12 359 358 358 351 357 3 4 1 358 356 356 357 346 332 336 332 316 330 320
13 3 16 15 12 16 13 17 10 11 4 1 4 4 9 19 20 31 23 15 24 18 19 16 12 2 355 355 358 351 349 356 359 3 2 1 349 345 332 330 330 330 339 330
11 10 6 4 8 6 8 8 11 8 5 359 355 360 12 12 12 16 15 1 352 349 360 7 11 9 356 349 348 350 354 349 349 353 357 357 357 354 343 337 329 325 324 319
8 360 353 354 0 7 6 3 4 359 358 355 352 351 9 10 11 4 358 355 347 339 345 353 355 357 353 348 343 341 342 345 345 348 349 347 346 346 344 341 340 330 326 323
1 357 349 357 5 7 2 1 357 352 349 343 344 349 2 360 352 348 343 342 336 323 325 334 338 340 343 348 345 340 336 337 338 338 337 339 337 334 335 335 331 329 326 324
357 351 345 342 342 345 342 342 344 342 338 330 318 315 323 325 330 337 336 334 329 320 314 322 333 336 338 338 341 343 340 337 335 335 334 333 334 333 332 330 329 329 328 326
351 338 336 332 333 331 324 326 332 327 314 324 321 327 323 331 333 335 338 335 326 316 311 313 324 333 335 336 337 337 337 338 338 336 334 332 331 330 329 329 328 327 325 325
345 337 339 337 337 341 334 339 338 332 325 314 313 316 324 334 343 340 338 335 325 316 310 311 317 329 333 333 333 333 333 333 334 331 329 329 328 327 326 325 324 324 323 322
334 337 339 338 344 341 344 347 343 342 339 336 332 332 339 339 338 337 337 335 327 319 312 309 315 325 331 334 335 332 331 331 330 328 327 327 326 325 325 325 324 323 323 323
327 331 334 332 338 336 343 342 338 334 334 330 325 328 332 334 335 333 336 334 331 325 320 319 319 324 332 337 337 335 333 331 328 326 325 324 323 322 322 321 321 320 320 319
321 329 330 331 329 326 336 343 341 338 334 336 337 338 337 339 336 328 335 335 330 329 332 337 330 332 333 333 334 333 331 331 329 327 326 325 324 321 321 320 320 320 319 318
336 324 325 328 325 326 335 340 344 343 332 347 341 335 334 333 326 326 334 340 341 340 340 340 338 335 331 330 331 329 329 329 327 327 325 324 323 321 320 319 319 320 319 318
331 328 317 317 321 325 333 340 343 331 331 337 333 332 329 327 327 330 337 339 340 342 342 341 336 331 333 333 331 328 328 327 327 326 325 324 323 322 321 320 320 319 318 317
321 323 322 325 324 324 342 340 329 327 327 327 327 327 327 328 329 333 338 343 340 335 335 331 331 332 334 333 330 329 326 326 326 326 325 324 324 323 323 321 320 319 318 317
315 316 322 321 318 323 323 324 325 327 325 327 326 327 328 328 328 332 333 336 334 333 333 334 332 331 332 332 332 327 326 327 327 326 325 324 324 323 323 321 320 319 319 318
320 316 315 318 322 319 323 325 327 328 327 328 329 330 331 329 331 332 335 332 331 331 331 334 332 330 329 331 330 328 328 328 327 325 325 325 324 324 324 323 322 320 320 318
316 319 315 310 314 321 328 332 331 331 332 334 336 337 336 338 337 339 339 337 337 335 335 335 333 331 330 330 330 330 330 329 327 326 326 325 325 325 324 324 323 321 320 319
316 315 315 316 323 323 325 330 332 333 335 337 339 342 345 346 345 346 342 342 339 337 337 335 333 332 332 332 331 331 331 331 329 328 328 328 327 327 326 325 324 324 321 320